TimeCET,TemperatureF,Dew PointF,Humidity,Sea Level PressureIn,VisibilityMPH,Wind Direction,Wind SpeedMPH,Gust SpeedMPH,PrecipitationIn,Events,Conditions,WindDirDegrees,DateUTC
12:00 AM,43,36,70,30.12,12,South,6.7,,,,Partly Cloudy,170,2014-01-07 23:00:00
12:00 AM,42.8,37.4,81,30.06,-9999.0,SSE,9.2,-,N/A,,Clear,160,2014-01-07 23:00:00
12:30 AM,42.8,35.6,76,30.06,-9999.0,SSE,9.2,-,N/A,,Clear,150,2014-01-07 23:30:00
1:00 AM,42,37,75,30.12,12,South,8.9,,,,Mostly Cloudy,190,2014-01-08 00:00:00
1:00 AM,42.8,37.4,81,30.06,-9999.0,South,8.1,-,N/A,,Clear,180,2014-01-08 00:00:00
1:30 AM,42.8,37.4,81,30.06,-9999.0,NNW,4.6,-,N/A,,Clear,330,2014-01-08 00:30:00
2:00 AM,38,35,85,30.14,9,North,4.5,,,Rain,Light Rain,10,2014-01-08 01:00:00
2:00 AM,37.4,35.6,93,30.09,-9999.0,Variable,2.3,-,N/A,,Clear,0,2014-01-08 01:00:00
2:30 AM,37.4,35.6,93,30.09,5.6,WSW,3.5,-,N/A,,Unknown,250,2014-01-08 01:30:00
3:00 AM,36,35,92,30.16,5,NW,2.2,,,,Mist,310,2014-01-08 02:00:00
3:00 AM,35.6,33.8,93,30.09,5.0,Variable,1.2,-,N/A,,Unknown,0,2014-01-08 02:00:00
3:30 AM,37.4,35.6,93,30.09,5.0,Variable,2.3,-,N/A,,Unknown,0,2014-01-08 02:30:00
4:00 AM,39,37,90,30.14,9,SSE,4.5,,,,Partly Cloudy,150,2014-01-08 03:00:00
4:00 AM,39.2,37.4,93,30.09,-9999.0,SSE,4.6,-,N/A,,Clear,160,2014-01-08 03:00:00
4:30 AM,39.2,35.6,87,30.06,-9999.0,SE,11.5,-,N/A,,Clear,140,2014-01-08 03:30:00
5:00 AM,39,36,87,30.13,9,WSW,6.7,,,,Scattered Clouds,250,2014-01-08 04:00:00
5:00 AM,39.2,35.6,87,30.06,-9999.0,North,5.8,-,N/A,,Clear,360,2014-01-08 04:00:00
5:30 AM,37.4,33.8,87,30.06,-9999.0,South,3.5,-,N/A,,Clear,190,2014-01-08 04:30:00
6:00 AM,38,35,83,30.14,12,South,4.5,,,,Partly Cloudy,190,2014-01-08 05:00:00
6:00 AM,37.4,33.8,87,30.09,-9999.0,South,5.8,-,N/A,,Clear,180,2014-01-08 05:00:00
6:30 AM,39.2,35.6,87,30.09,-9999.0,South,6.9,-,N/A,,Clear,190,2014-01-08 05:30:00
7:00 AM,40,36,80,30.14,16,SSW,11.2,,,,Partly Cloudy,200,2014-01-08 06:00:00
7:00 AM,39.2,35.6,87,30.09,-9999.0,SSW,9.2,-,N/A,,Clear,200,2014-01-08 06:00:00
7:30 AM,41.0,37.4,87,30.09,-9999.0,South,6.9,-,N/A,,Clear,180,2014-01-08 06:30:00
7:47 AM,41.0,37.4,87,30.09,6.2,South,10.4,-,N/A,Rain,Light Rain,190,2014-01-08 06:47:00
8:00 AM,41,37,81,30.16,16,SSW,11.2,,,Rain,Light Rain,200,2014-01-08 07:00:00
8:00 AM,41.0,37.4,87,30.12,-9999.0,South,10.4,-,N/A,,Clear,190,2014-01-08 07:00:00
8:30 AM,41.0,37.4,87,30.09,-9999.0,SSW,9.2,-,N/A,,Clear,210,2014-01-08 07:30:00
9:00 AM,41,37,79,30.15,19,SSW,13.4,,,,Partly Cloudy,200,2014-01-08 08:00:00
9:00 AM,41.0,35.6,81,30.09,-9999.0,South,11.5,-,N/A,,Clear,190,2014-01-08 08:00:00
9:30 AM,42.8,37.4,81,30.09,-9999.0,South,15.0,-,N/A,,Clear,190,2014-01-08 08:30:00
10:00 AM,46,40,71,30.16,19,SW,11.2,,,,Partly Cloudy,220,2014-01-08 09:00:00
10:00 AM,46.4,39.2,76,30.12,-9999.0,SSW,10.4,-,N/A,,Clear,200,2014-01-08 09:00:00
10:30 AM,46.4,39.2,76,30.12,-9999.0,SSW,9.2,-,N/A,,Clear,210,2014-01-08 09:30:00
11:00 AM,47,41,73,30.16,19,SSW,8.9,,,,Scattered Clouds,210,2014-01-08 10:00:00
11:00 AM,48.2,41.0,76,30.12,6.2,SSW,9.2,-,N/A,,Partly Cloudy,200,2014-01-08 10:00:00
11:30 AM,50.0,42.8,76,30.12,6.2,SSW,5.8,-,N/A,,Partly Cloudy,200,2014-01-08 10:30:00
12:00 PM,51,43,66,30.13,19,WSW,15.7,,,,Scattered Clouds,250,2014-01-08 11:00:00
12:00 PM,51.8,42.8,71,30.12,6.2,WSW,12.7,27.6,N/A,,Partly Cloudy,240,2014-01-08 11:00:00
12:30 PM,51.8,42.8,71,30.09,6.2,WSW,19.6,-,N/A,,Partly Cloudy,240,2014-01-08 11:30:00
1:00 PM,52,43,61,30.12,22,WSW,20.1,,,,Partly Cloudy,240,2014-01-08 12:00:00
1:00 PM,51.8,42.8,71,30.09,6.2,SW,21.9,-,N/A,,Partly Cloudy,230,2014-01-08 12:00:00
1:30 PM,51.8,42.8,71,30.09,6.2,WSW,18.4,-,N/A,,Partly Cloudy,240,2014-01-08 12:30:00
2:00 PM,52,42,60,30.13,22,West,15.7,,,,Scattered Clouds,260,2014-01-08 13:00:00
2:00 PM,51.8,42.8,71,30.09,6.2,WSW,17.3,-,N/A,,Partly Cloudy,250,2014-01-08 13:00:00
2:30 PM,51.8,41.0,67,30.12,6.2,West,15.0,-,N/A,,Partly Cloudy,260,2014-01-08 13:30:00
3:00 PM,52,40,55,30.14,44,West,15.7,,,,Scattered Clouds,260,2014-01-08 14:00:00
3:00 PM,51.8,41.0,67,30.12,6.2,West,13.8,-,N/A,,Partly Cloudy,260,2014-01-08 14:00:00
3:30 PM,50.0,41.0,71,30.12,6.2,WSW,12.7,-,N/A,,Partly Cloudy,250,2014-01-08 14:30:00
4:00 PM,48,40,64,30.16,47,WSW,8.9,,,,Scattered Clouds,240,2014-01-08 15:00:00
4:00 PM,48.2,39.2,71,30.12,6.2,WSW,10.4,-,N/A,,Partly Cloudy,240,2014-01-08 15:00:00
4:30 PM,48.2,39.2,71,30.12,6.2,SW,10.4,-,N/A,,Partly Cloudy,230,2014-01-08 15:30:00
5:00 PM,45,38,69,30.17,47,SSW,6.7,,,,Scattered Clouds,210,2014-01-08 16:00:00
5:00 PM,44.6,37.4,76,30.12,6.2,SSW,6.9,-,N/A,,Partly Cloudy,210,2014-01-08 16:00:00
5:30 PM,46.4,39.2,76,30.12,6.2,SSW,5.8,-,N/A,,Partly Cloudy,210,2014-01-08 16:30:00
6:00 PM,42,37,77,30.17,47,SSW,8.9,,,,Clear,210,2014-01-08 17:00:00
6:00 PM,42.8,37.4,81,30.12,-9999.0,SW,8.1,-,N/A,,Clear,220,2014-01-08 17:00:00
6:30 PM,42.8,37.4,81,30.12,-9999.0,SSW,5.8,-,N/A,,Clear,210,2014-01-08 17:30:00
7:00 PM,43,38,77,30.18,47,SW,11.2,,,,Clear,230,2014-01-08 18:00:00
7:00 PM,42.8,39.2,87,30.15,-9999.0,SW,8.1,-,N/A,,Clear,230,2014-01-08 18:00:00
7:30 PM,42.8,39.2,87,30.15,-9999.0,SSW,5.8,-,N/A,,Clear,210,2014-01-08 18:30:00
8:00 PM,44,39,76,30.18,31,South,4.5,,,,Scattered Clouds,190,2014-01-08 19:00:00
8:00 PM,44.6,39.2,81,30.15,-9999.0,South,6.9,-,N/A,,Clear,190,2014-01-08 19:00:00
8:30 PM,41.0,37.4,87,30.15,-9999.0,South,5.8,-,N/A,,Clear,190,2014-01-08 19:30:00
9:00 PM,40,37,85,30.20,19,SSW,8.9,,,,Scattered Clouds,210,2014-01-08 20:00:00
9:00 PM,39.2,37.4,93,30.15,-9999.0,SSW,8.1,-,N/A,,Clear,200,2014-01-08 20:00:00
9:30 PM,39.2,35.6,87,30.15,-9999.0,SSW,8.1,-,N/A,,Clear,200,2014-01-08 20:30:00
10:00 PM,38,36,91,30.19,16,SSW,8.9,,,,Scattered Clouds,200,2014-01-08 21:00:00
10:00 PM,39.2,37.4,93,30.12,-9999.0,SSW,9.2,-,N/A,,Clear,200,2014-01-08 21:00:00
10:30 PM,41.0,37.4,87,30.12,6.2,SSW,10.4,-,N/A,,Mostly Cloudy,210,2014-01-08 21:30:00
11:00 PM,40,38,90,30.18,16,SSW,11.2,,,,Scattered Clouds,210,2014-01-08 22:00:00
11:00 PM,41.0,37.4,87,30.12,6.2,SSW,8.1,-,N/A,,Partly Cloudy,200,2014-01-08 22:00:00
11:30 PM,41.0,39.2,93,30.12,-9999.0,SSW,11.5,-,N/A,,Clear,210,2014-01-08 22:30:00